Location: ?????
(32.7281°N, 34.9563°E)
Time: 01:37:30
(UTC+00:00)

Cosmos 967 Rocket - Pass Details

Date: 29 October 2020
Orbit: 953 x 985 km, 65.8° (Epoch: 25 November)

Event Time Altitude Azimuth Distance (km) Brightness Sun altitude
Rises 16:39:50 0° 206° (SSW) 3,674 7.9 -23.2°
Reaches altitude 10° 16:42:23 10° 206° (SSW) 2,727 7.2 -23.8°
Maximum altitude 16:48:48 87° 294° (WNW) 985 4.4 -25.1°
Enters shadow 16:51:58 32° 25° (NNE) 1,600 5.4 -25.8°
